Location: Newark
(53.5596°N, 1.2370°W)
Time: 13:24:20
(UTC+00:00)

ISS - Pass Details

Date: 29 October 2019
Orbit: 412 x 421 km, 51.6° (Epoch: 17 November)

Event Time Altitude Azimuth Distance (km) Brightness Sun altitude
Exits shadow 05:29:44 13° 222° (SW) 1,348 -1.5 -13.5°
Maximum altitude 05:32:26 35° 158° (SSE) 697 -2.4 -13.1°
Drops below altitude 10° 05:35:34 10° 90° (E) 1,509 0.6 -12.7°
Sets 05:37:46 0° 82° (E) 2,374 1.8 -12.3°
